Location: LDNL
(36.4545°S, 141.6685°E)
Time: 11:05:23
(UTC+10:00)

Tiros 1 despin weight - Pass Details

Date: 10 August 2022
Orbit: 590 x 639 km, 48.2° (Epoch: 23 September)

Event Time Altitude Azimuth Distance (km) Brightness Sun altitude
Rises 07:25:26 0° 235° (SW) 2,966 ? -0.2°
Reaches altitude 10° 07:27:47 10° 234° (SW) 2,051 ? 0.2°
Maximum altitude 07:32:32 85° 146° (SSE) 651 ? 1.1°
Drops below altitude 10° 07:37:13 10° 56° (NE) 2,021 ? 2.0°
Sets 07:39:31 0° 55° (NE) 2,917 ? 2.4°
